TimeCST,TemperatureF,Dew PointF,Humidity,Sea Level PressureIn,VisibilityMPH,Wind Direction,Wind SpeedMPH,Gust SpeedMPH,PrecipitationIn,Events,Conditions,WindDirDegrees,DateUTC
12:15 AM,27.5,22.1,80,30.27,10.0,Calm,Calm,-,N/A,,Clear,0,2012-12-05 06:15:00
12:35 AM,30.0,22.5,73,30.28,10.0,Calm,Calm,-,N/A,,Clear,0,2012-12-05 06:35:00
12:55 AM,29.1,22.5,76,30.27,10.0,Calm,Calm,-,N/A,,Clear,0,2012-12-05 06:55:00
1:15 AM,28.6,22.8,79,30.27,10.0,Calm,Calm,-,N/A,,Clear,0,2012-12-05 07:15:00
1:55 AM,28.4,22.6,79,30.27,10.0,Calm,Calm,-,N/A,,Clear,0,2012-12-05 07:55:00
2:15 AM,28.0,22.1,78,30.26,10.0,Calm,Calm,-,N/A,,Clear,0,2012-12-05 08:15:00
2:35 AM,28.4,23.2,81,30.27,10.0,Calm,Calm,-,N/A,,Clear,0,2012-12-05 08:35:00
2:55 AM,30.0,22.8,75,30.26,10.0,Calm,Calm,-,N/A,,Clear,0,2012-12-05 08:55:00
3:15 AM,27.9,22.1,79,30.26,10.0,Calm,Calm,-,N/A,,Clear,0,2012-12-05 09:15:00
3:35 AM,27.1,22.1,81,30.26,10.0,Calm,Calm,-,N/A,,Clear,0,2012-12-05 09:35:00
3:55 AM,28.2,22.6,80,30.26,10.0,Calm,Calm,-,N/A,,Clear,0,2012-12-05 09:55:00
4:15 AM,28.6,22.1,77,30.25,10.0,Calm,Calm,-,N/A,,Clear,0,2012-12-05 10:15:00
4:35 AM,28.0,22.5,80,30.24,7.0,Calm,Calm,-,N/A,,Clear,0,2012-12-05 10:35:00
4:55 AM,28.6,23.4,81,30.23,7.0,East,3.5,-,N/A,,Clear,80,2012-12-05 10:55:00
5:15 AM,28.2,22.6,80,30.23,10.0,Calm,Calm,-,N/A,,Clear,0,2012-12-05 11:15:00
5:35 AM,27.9,22.6,81,30.22,10.0,Calm,Calm,-,N/A,,Clear,0,2012-12-05 11:35:00
5:55 AM,26.2,21.7,83,30.22,10.0,Calm,Calm,-,N/A,,Clear,0,2012-12-05 11:55:00
6:15 AM,29.5,23.0,77,30.21,10.0,Calm,Calm,-,N/A,,Clear,0,2012-12-05 12:15:00
6:35 AM,30.0,22.8,75,30.21,7.0,SSE,4.6,-,N/A,,Clear,160,2012-12-05 12:35:00
6:55 AM,32.9,23.5,68,30.21,10.0,SSE,5.8,-,N/A,,Clear,160,2012-12-05 12:55:00
8:35 AM,41.5,24.4,51,30.19,10.0,South,12.7,-,N/A,,Clear,180,2012-12-05 14:35:00
8:55 AM,43.2,24.1,47,30.20,10.0,South,12.7,-,N/A,,Clear,190,2012-12-05 14:55:00
9:15 AM,45.3,23.7,43,30.20,10.0,SSW,12.7,17.3,N/A,,Clear,200,2012-12-05 15:15:00
9:35 AM,46.6,23.7,41,30.19,10.0,South,13.8,18.4,N/A,,Clear,190,2012-12-05 15:35:00
9:55 AM,47.1,23.7,40,30.19,10.0,South,17.3,20.7,N/A,,Clear,190,2012-12-05 15:55:00
10:15 AM,50.2,24.4,37,30.18,10.0,South,16.1,24.2,N/A,,Clear,190,2012-12-05 16:15:00
10:35 AM,53.8,23.9,31,30.17,10.0,South,19.6,26.5,N/A,,Clear,190,2012-12-05 16:35:00
10:55 AM,54.9,23.7,30,30.16,10.0,South,21.9,31.1,N/A,,Clear,190,2012-12-05 16:55:00
11:15 AM,55.9,23.7,29,30.15,10.0,South,18.4,26.5,N/A,,Clear,180,2012-12-05 17:15:00
11:35 AM,57.0,22.6,26,30.13,10.0,South,18.4,27.6,N/A,,Clear,190,2012-12-05 17:35:00
11:55 AM,59.0,22.3,24,30.12,10.0,South,20.7,31.1,N/A,,Clear,190,2012-12-05 17:55:00
12:15 PM,57.4,21.0,24,30.10,10.0,South,20.7,32.2,N/A,,Clear,190,2012-12-05 18:15:00
12:35 PM,58.1,21.9,25,30.08,10.0,South,18.4,27.6,N/A,,Clear,190,2012-12-05 18:35:00
12:55 PM,59.0,22.6,25,30.06,10.0,South,23.0,29.9,N/A,,Clear,190,2012-12-05 18:55:00
1:15 PM,59.0,23.4,25,30.05,10.0,South,20.7,28.8,N/A,,Clear,180,2012-12-05 19:15:00
1:35 PM,59.9,23.0,24,30.04,10.0,South,20.7,28.8,N/A,,Clear,180,2012-12-05 19:35:00
1:55 PM,60.4,23.0,24,30.03,10.0,South,24.2,27.6,N/A,,Clear,180,2012-12-05 19:55:00
2:15 PM,61.2,22.8,23,30.01,10.0,South,20.7,29.9,N/A,,Clear,180,2012-12-05 20:15:00
2:35 PM,61.7,22.8,23,30.00,10.0,South,24.2,32.2,N/A,,Clear,180,2012-12-05 20:35:00
2:55 PM,61.2,22.5,23,29.99,10.0,South,18.4,26.5,N/A,,Clear,190,2012-12-05 20:55:00
3:15 PM,61.0,22.1,22,29.98,10.0,South,21.9,29.9,N/A,,Clear,180,2012-12-05 21:15:00
3:35 PM,60.1,22.1,23,29.96,10.0,South,18.4,28.8,N/A,,Clear,180,2012-12-05 21:35:00
3:55 PM,59.4,21.9,24,29.96,10.0,South,17.3,29.9,N/A,,Clear,180,2012-12-05 21:55:00
4:15 PM,58.5,22.1,25,29.95,10.0,South,15.0,26.5,N/A,,Clear,180,2012-12-05 22:15:00
4:35 PM,57.2,22.1,26,29.95,10.0,South,16.1,21.9,N/A,,Clear,170,2012-12-05 22:35:00
4:55 PM,55.6,22.6,28,29.94,10.0,South,13.8,20.7,N/A,,Clear,170,2012-12-05 22:55:00
5:15 PM,54.7,22.1,28,29.94,10.0,South,16.1,19.6,N/A,,Clear,170,2012-12-05 23:15:00
5:35 PM,54.3,22.3,29,29.93,10.0,South,15.0,19.6,N/A,,Clear,170,2012-12-05 23:35:00
5:55 PM,53.6,21.7,29,29.93,10.0,South,11.5,18.4,N/A,,Clear,170,2012-12-05 23:55:00
6:15 PM,53.1,21.2,29,29.93,10.0,South,10.4,-,N/A,,Clear,170,2012-12-06 00:15:00
6:35 PM,51.8,21.2,30,29.93,10.0,South,9.2,-,N/A,,Clear,180,2012-12-06 00:35:00
6:55 PM,51.3,21.0,31,29.93,10.0,South,9.2,-,N/A,,Clear,180,2012-12-06 00:55:00
7:15 PM,51.6,20.8,30,29.93,10.0,South,11.5,17.3,N/A,,Clear,180,2012-12-06 01:15:00
7:35 PM,51.4,21.6,31,29.93,10.0,South,13.8,18.4,N/A,,Clear,170,2012-12-06 01:35:00
7:55 PM,51.1,21.7,32,29.92,10.0,South,12.7,18.4,N/A,,Clear,170,2012-12-06 01:55:00
8:15 PM,50.9,21.7,32,29.92,10.0,South,11.5,19.6,N/A,,Clear,170,2012-12-06 02:15:00
8:35 PM,50.9,21.2,31,29.92,10.0,South,10.4,-,N/A,,Clear,180,2012-12-06 02:35:00
8:55 PM,50.0,20.7,32,29.92,10.0,South,11.5,-,N/A,,Clear,170,2012-12-06 02:55:00